Location: Handeloh
(53.2500°N, 9.8330°E)
Time: 03:19:11
(UTC+01:00)

Transit 4A - All Passes

Search period start: 19 November 2019 00:00
Search period end: 29 November 2019 00:00
Orbit: 869 x 976 km, 66.8° (Epoch: 18 November)

Date Brightness Start Highest point End Pass type
(mag) Time Alt. Az. Time Alt. Az. Time Alt. Az.
19 Nov - 00:54:56 10° W 01:00:27 33° NNW 01:05:51 10° NE visible
19 Nov - 02:43:55 10° NW 02:48:36 22° N 02:53:13 10° NE visible
19 Nov - 04:31:27 10° NW 04:36:48 32° NNE 04:42:01 10° E visible
19 Nov - 06:17:56 10° NW 06:23:56 86° NE 06:29:48 10° SE visible
19 Nov - 08:05:07 10° WNW 08:09:36 23° WSW 08:14:01 10° SSW daylight
19 Nov - 21:31:13 10° S 21:36:41 33° ESE 21:42:02 10° NE night (unlit)
19 Nov - 23:16:31 10° SW 23:22:44 69° NW 23:28:47 10° NE night (unlit)
20 Nov - 01:04:51 10° W 01:10:07 28° NNW 01:15:17 10° NE visible
20 Nov - 02:53:41 10° NW 02:58:23 23° N 03:03:01 10° ENE visible
20 Nov - 04:40:52 10° NW 04:46:25 37° NNE 04:51:51 10° E visible
20 Nov - 06:27:20 10° NW 06:33:16 72° SW 06:39:03 10° SSE visible
20 Nov - 08:15:10 10° WNW 08:18:36 16° WSW 08:22:00 10° SW daylight
20 Nov - 21:39:58 10° S 21:45:50 44° ESE 21:51:35 10° NE night (unlit)
20 Nov - 23:26:06 10° WSW 23:32:11 54° NW 23:38:07 10° NE night (unlit)
21 Nov - 01:14:48 10° WNW 01:19:50 25° NNW 01:24:46 10° NE visible
21 Nov - 03:03:21 10° NW 03:08:09 24° N 03:12:53 10° ENE visible
21 Nov - 04:50:14 10° NW 04:56:00 45° NE 05:01:36 10° ESE visible
21 Nov - 06:36:45 10° NW 06:42:30 53° WSW 06:48:09 10° SSE visible
21 Nov - 08:26:16 10° W 08:27:31 11° W 08:28:46 10° WSW daylight
21 Nov - 20:06:59 10° SE 20:09:50 14° ESE 20:12:40 10° ENE night (unlit)
21 Nov - 21:48:57 10° SSW 21:55:04 60° ESE 22:01:03 10° NE night (unlit)
21 Nov - 23:35:49 10° WSW 23:41:42 44° NW 23:47:28 10° NE night (unlit)
22 Nov - 01:24:45 10° WNW 01:29:35 24° N 01:34:19 10° NE visible
22 Nov - 03:12:55 10° NW 03:17:54 26° NNE 03:22:47 10° ENE visible
22 Nov - 04:59:36 10° NW 05:05:30 57° NE 05:11:15 10° ESE visible
22 Nov - 06:46:15 10° NW 06:51:42 39° WSW 06:57:01 10° S visible
22 Nov - 20:14:35 10° SSE 20:18:49 19° ESE 20:23:00 10° ENE night (unlit)
22 Nov - 21:58:08 10° SSW 22:04:21 79° SE 22:10:27 10° NE night (unlit)
22 Nov - 23:45:38 10° W 23:51:18 36° NNW 23:56:50 10° NE night (unlit)
23 Nov - 01:34:39 10° NW 01:39:21 23° N 01:43:59 10° NE visible
23 Nov - 03:22:26 10° NW 03:27:37 29° NNE 03:32:42 10° E visible
23 Nov - 05:08:57 10° NW 05:14:56 74° NE 05:20:46 10° SE visible
23 Nov - 06:55:53 10° NW 07:00:49 28° WSW 07:05:39 10° SSW visible
23 Nov - 20:22:47 10° SSE 20:27:52 27° ESE 20:32:51 10° NE night (unlit)
23 Nov - 22:07:28 10° SW 22:13:42 80° NW 22:19:48 10° NE night (unlit)
23 Nov - 23:55:32 10° W 00:00:56 31° NNW 00:06:14 10° NE night (unlit)
24 Nov - 01:44:28 10° NW 01:49:08 22° N 01:53:43 10° NE visible
24 Nov - 03:31:52 10° NW 03:37:16 33° NNE 03:42:34 10° E visible
24 Nov - 05:18:20 10° NW 05:24:18 86° SW 05:30:08 10° SE visible
24 Nov - 07:05:42 10° WNW 07:09:51 20° WSW 07:13:57 10° SSW visible
24 Nov - 20:31:22 10° S 20:36:59 37° ESE 20:42:29 10° NE night (unlit)
24 Nov - 22:16:59 10° SW 22:23:08 63° NW 22:29:09 10° NE night (unlit)
25 Nov - 00:05:28 10° WNW 00:10:38 27° NNW 00:15:41 10° NE night (unlit)
25 Nov - 01:54:12 10° NW 01:58:55 23° N 02:03:33 10° ENE visible
25 Nov - 03:41:16 10° NW 03:46:53 40° NNE 03:52:22 10° ESE visible
25 Nov - 05:27:43 10° NW 05:33:36 65° WSW 05:39:21 10° SSE visible
25 Nov - 07:15:57 10° WNW 07:18:49 14° WSW 07:21:40 10° SW visible
25 Nov - 19:00:20 10° ESE 19:01:08 10° E 19:01:57 10° E night (unlit)
25 Nov - 20:40:12 10° SSW 20:46:10 50° ESE 20:52:00 10° NE night (unlit)
25 Nov - 22:26:37 10° WSW 22:32:37 50° NW 22:38:29 10° NE night (unlit)
26 Nov - 00:15:25 10° WNW 00:20:21 25° NNW 00:25:12 10° NE night (unlit)
26 Nov - 02:03:50 10° NW 02:08:41 24° NNE 02:13:26 10° ENE visible
26 Nov - 03:50:38 10° NW 03:56:26 49° NE 04:02:05 10° ESE visible
26 Nov - 05:37:11 10° NW 05:42:50 47° WSW 05:48:22 10° S visible
26 Nov - 19:06:38 10° SE 19:10:05 15° ESE 19:13:28 10° ENE night (unlit)
26 Nov - 20:49:16 10° SSW 20:55:25 67° ESE 21:01:26 10° NE night (unlit)
26 Nov - 22:36:22 10° WSW 22:42:10 41° NW 22:47:50 10° NE night (unlit)
27 Nov - 00:25:22 10° WNW 00:30:07 23° N 00:34:47 10° NE night (unlit)
27 Nov - 02:13:22 10° NW 02:18:25 27° NNE 02:23:21 10° ENE visible
27 Nov - 04:00:00 10° NW 04:05:54 62° NE 04:11:41 10° SE visible
27 Nov - 05:46:43 10° NW 05:52:00 34° WSW 05:57:10 10° S visible
27 Nov - 19:14:31 10° SSE 19:19:05 22° ESE 19:23:35 10° ENE visible
27 Nov - 20:58:30 10° SW 21:04:44 87° SE 21:10:49 10° NE visible
27 Nov - 22:46:13 10° W 22:51:46 34° NNW 22:57:13 10° NE night (unlit)
28 Nov - 00:35:13 10° NW 00:39:54 22° N 00:44:28 10° NE night (unlit)
28 Nov - 02:22:52 10° NW 02:28:06 30° NNE 02:33:15 10° E visible
28 Nov - 04:09:20 10° NW 04:15:19 81° NE 04:21:10 10° SE visible
28 Nov - 05:56:25 10° WNW 06:01:04 25° WSW 06:05:41 10° SSW visible
28 Nov - 19:22:52 10° S 19:28:09 30° ESE 19:33:20 10° NE visible
28 Nov - 21:07:55 10° SW 21:14:07 73° NW 21:20:10 10° NE visible
28 Nov - 22:56:08 10° W 23:01:25 29° NNW 23:06:37 10° NE night (unlit)
